Time,TemperatureF,DewpointF,PressureIn,WindDirection,WindDirectionDegrees,WindSpeedMPH,WindSpeedGustMPH,Humidity,HourlyPrecipIn,Conditions,Clouds,dailyrainin,SoftwareType,DateUTC
2013-02-15 00:00:00,31.5,28.1,30.01,SW,220,0.0,0.0,87,0.00,,,0.23,LWC V2.10 B1702,2013-02-15 05:00:00,
2013-02-15 00:05:00,31.5,28.1,30.02,SW,218,0.0,1.0,87,0.00,,,0.00,LWC V2.10 B1702,2013-02-15 05:05:00,
2013-02-15 00:10:00,31.5,28.1,30.01,SW,218,0.0,0.0,87,0.00,,,0.00,LWC V2.10 B1702,2013-02-15 05:10:00,
2013-02-15 00:15:00,31.5,28.1,30.01,SW,218,0.0,0.0,87,0.00,,,0.00,LWC V2.10 B1702,2013-02-15 05:15:00,
2013-02-15 00:20:00,31.5,28.1,30.01,SW,218,0.0,0.0,87,0.00,,,0.00,LWC V2.10 B1702,2013-02-15 05:20:00,
2013-02-15 00:25:00,31.4,28.0,30.01,SW,218,0.0,0.0,87,0.00,,,0.00,LWC V2.10 B1702,2013-02-15 05:25:00,
2013-02-15 00:30:00,31.3,27.9,30.01,SW,218,0.0,0.0,87,0.00,,,0.00,LWC V2.10 B1702,2013-02-15 05:30:00,
2013-02-15 00:35:00,31.2,27.8,30.01,SW,218,0.0,0.0,87,0.00,,,0.00,LWC V2.10 B1702,2013-02-15 05:35:00,
2013-02-15 00:40:00,31.1,27.7,30.01,SW,218,0.0,0.0,87,0.00,,,0.00,LWC V2.10 B1702,2013-02-15 05:40:00,
2013-02-15 00:45:00,31.0,27.6,30.01,SW,218,0.0,0.0,87,0.00,,,0.00,LWC V2.10 B1702,2013-02-15 05:45:00,
2013-02-15 00:50:00,31.0,27.9,30.01,SW,218,0.0,0.0,88,0.00,,,0.00,LWC V2.10 B1702,2013-02-15 05:50:00,
2013-02-15 00:55:00,31.1,28.0,30.01,SW,218,0.0,0.0,88,0.00,,,0.00,LWC V2.10 B1702,2013-02-15 05:55:00,
2013-02-15 01:00:00,31.1,28.0,30.01,SW,218,0.0,0.0,88,0.00,,,0.00,LWC V2.10 B1702,2013-02-15 06:00:00,
2013-02-15 01:05:00,31.2,28.1,30.02,SW,218,1.0,1.0,88,0.00,,,0.00,LWC V2.10 B1702,2013-02-15 06:05:00,
2013-02-15 01:10:00,31.4,28.5,30.02,SW,217,0.0,1.0,89,0.00,,,0.00,LWC V2.10 B1702,2013-02-15 06:10:00,
2013-02-15 01:15:00,31.6,28.5,30.02,SW,217,0.0,0.0,88,0.00,,,0.00,LWC V2.10 B1702,2013-02-15 06:15:00,
2013-02-15 01:20:00,31.7,28.6,30.01,SW,217,0.0,0.0,88,0.00,,,0.00,LWC V2.10 B1702,2013-02-15 06:20:00,
2013-02-15 01:25:00,31.8,28.7,30.01,SW,217,0.0,0.0,88,0.00,,,0.00,LWC V2.10 B1702,2013-02-15 06:25:00,
2013-02-15 01:30:00,31.9,29.0,30.01,SW,217,0.0,0.0,89,0.00,,,0.00,LWC V2.10 B1702,2013-02-15 06:30:00,
2013-02-15 01:35:00,31.9,29.0,30.01,SW,217,0.0,0.0,89,0.00,,,0.00,LWC V2.10 B1702,2013-02-15 06:35:00,
2013-02-15 01:40:00,32.0,29.1,30.02,SW,217,0.0,0.0,89,0.00,,,0.00,LWC V2.10 B1702,2013-02-15 06:40:00,
2013-02-15 01:45:00,32.1,29.2,30.02,SW,217,0.0,1.0,89,0.00,,,0.00,LWC V2.10 B1702,2013-02-15 06:45:00,
2013-02-15 01:50:00,32.2,29.3,30.02,SW,217,0.0,0.0,89,0.00,,,0.00,LWC V2.10 B1702,2013-02-15 06:50:00,
2013-02-15 01:55:00,32.3,29.4,30.02,SW,217,0.0,0.0,89,0.00,,,0.00,LWC V2.10 B1702,2013-02-15 06:55:00,
2013-02-15 02:00:00,32.4,29.5,30.02,SW,217,0.0,0.0,89,0.00,,,0.00,LWC V2.10 B1702,2013-02-15 07:00:00,
2013-02-15 02:05:00,32.4,29.5,30.02,SW,217,0.0,0.0,89,0.00,,,0.00,LWC V2.10 B1702,2013-02-15 07:05:00,
2013-02-15 02:10:00,32.4,29.5,30.02,SW,217,0.0,0.0,89,0.00,,,0.00,LWC V2.10 B1702,2013-02-15 07:10:00,
2013-02-15 02:15:00,32.5,29.6,30.02,SW,217,0.0,0.0,89,0.00,,,0.00,LWC V2.10 B1702,2013-02-15 07:15:00,
2013-02-15 02:20:00,32.5,29.6,30.02,SW,217,0.0,0.0,89,0.00,,,0.00,LWC V2.10 B1702,2013-02-15 07:20:00,
2013-02-15 02:25:00,32.5,29.6,30.02,SW,217,0.0,0.0,89,0.00,,,0.00,LWC V2.10 B1702,2013-02-15 07:25:00,
2013-02-15 02:30:00,32.5,29.9,30.02,SW,217,0.0,0.0,90,0.00,,,0.00,LWC V2.10 B1702,2013-02-15 07:30:00,
2013-02-15 02:35:00,32.6,29.7,30.02,SW,217,0.0,0.0,89,0.00,,,0.00,LWC V2.10 B1702,2013-02-15 07:35:00,
2013-02-15 02:40:00,32.6,29.7,30.02,SW,217,0.0,0.0,89,0.00,,,0.00,LWC V2.10 B1702,2013-02-15 07:40:00,
2013-02-15 02:45:00,32.5,29.6,30.01,SW,217,0.0,0.0,89,0.00,,,0.00,LWC V2.10 B1702,2013-02-15 07:45:00,
2013-02-15 02:50:00,32.4,29.5,30.01,SW,217,0.0,0.0,89,0.00,,,0.00,LWC V2.10 B1702,2013-02-15 07:50:00,
2013-02-15 02:55:00,32.3,29.4,30.01,SW,217,0.0,0.0,89,0.00,,,0.00,LWC V2.10 B1702,2013-02-15 07:55:00,
2013-02-15 03:00:00,32.3,29.4,30.01,SW,217,0.0,0.0,89,0.00,,,0.00,LWC V2.10 B1702,2013-02-15 08:00:00,
2013-02-15 03:05:00,32.4,29.8,30.01,SW,217,0.0,0.0,90,0.00,,,0.00,LWC V2.10 B1702,2013-02-15 08:05:00,
2013-02-15 03:10:00,32.5,29.9,30.01,SW,217,0.0,0.0,90,0.00,,,0.00,LWC V2.10 B1702,2013-02-15 08:10:00,
2013-02-15 03:15:00,32.5,29.9,30.01,SW,217,0.0,0.0,90,0.00,,,0.00,LWC V2.10 B1702,2013-02-15 08:15:00,
2013-02-15 03:20:00,32.5,29.9,30.01,SW,217,0.0,0.0,90,0.00,,,0.00,LWC V2.10 B1702,2013-02-15 08:20:00,
2013-02-15 03:25:00,32.4,29.8,30.01,SW,217,0.0,0.0,90,0.00,,,0.00,LWC V2.10 B1702,2013-02-15 08:25:00,
2013-02-15 03:30:00,32.4,29.8,30.01,SW,217,0.0,0.0,90,0.00,,,0.00,LWC V2.10 B1702,2013-02-15 08:30:00,
2013-02-15 03:35:00,32.4,29.8,30.01,SW,217,0.0,0.0,90,0.00,,,0.00,LWC V2.10 B1702,2013-02-15 08:35:00,
2013-02-15 03:40:00,32.4,29.8,30.01,SW,217,0.0,0.0,90,0.00,,,0.00,LWC V2.10 B1702,2013-02-15 08:40:00,
2013-02-15 03:45:00,32.4,29.8,30.01,SW,217,0.0,0.0,90,0.00,,,0.00,LWC V2.10 B1702,2013-02-15 08:45:00,
2013-02-15 03:50:00,32.5,30.2,30.01,SW,217,0.0,1.0,91,0.00,,,0.00,LWC V2.10 B1702,2013-02-15 08:50:00,
2013-02-15 03:55:00,32.6,30.3,30.01,SW,217,0.0,0.0,91,0.00,,,0.00,LWC V2.10 B1702,2013-02-15 08:55:00,
2013-02-15 04:00:00,32.6,30.3,30.01,SW,217,0.0,0.0,91,0.00,,,0.00,LWC V2.10 B1702,2013-02-15 09:00:00,
2013-02-15 04:05:00,32.8,30.5,30.01,SW,217,0.0,0.0,91,0.00,,,0.00,LWC V2.10 B1702,2013-02-15 09:05:00,
2013-02-15 04:10:00,32.9,30.6,30.01,SW,217,0.0,1.0,91,0.00,,,0.00,LWC V2.10 B1702,2013-02-15 09:10:00,
2013-02-15 04:15:00,32.9,30.6,30.01,SW,217,0.0,0.0,91,0.00,,,0.00,LWC V2.10 B1702,2013-02-15 09:15:00,
2013-02-15 04:20:00,32.9,30.6,30.01,SW,217,0.0,1.0,91,0.00,,,0.00,LWC V2.10 B1702,2013-02-15 09:20:00,
2013-02-15 04:25:00,32.9,30.6,30.01,SW,217,0.0,2.0,91,0.00,,,0.00,LWC V2.10 B1702,2013-02-15 09:25:00,
2013-02-15 04:30:00,32.9,30.6,30.01,SW,217,0.0,0.0,91,0.00,,,0.00,LWC V2.10 B1702,2013-02-15 09:30:00,
2013-02-15 04:35:00,32.9,30.3,30.01,SW,217,0.0,0.0,90,0.00,,,0.00,LWC V2.10 B1702,2013-02-15 09:35:00,
2013-02-15 04:40:00,32.7,30.1,30.01,SW,217,0.0,0.0,90,0.00,,,0.00,LWC V2.10 B1702,2013-02-15 09:40:00,
2013-02-15 04:45:00,32.6,30.0,30.01,SW,217,0.0,0.0,90,0.00,,,0.00,LWC V2.10 B1702,2013-02-15 09:45:00,
2013-02-15 04:50:00,32.7,30.4,30.01,SW,217,0.0,0.0,91,0.00,,,0.00,LWC V2.10 B1702,2013-02-15 09:50:00,
2013-02-15 04:55:00,32.6,30.0,30.01,SW,217,0.0,0.0,90,0.00,,,0.00,LWC V2.10 B1702,2013-02-15 09:55:00,
2013-02-15 05:00:00,32.6,30.3,30.02,SW,217,0.0,0.0,91,0.00,,,0.00,LWC V2.10 B1702,2013-02-15 10:00:00,
2013-02-15 05:05:00,32.7,30.4,30.02,SW,217,0.0,0.0,91,0.00,,,0.00,LWC V2.10 B1702,2013-02-15 10:05:00,
2013-02-15 05:10:00,32.8,30.5,30.02,SW,217,0.0,0.0,91,0.00,,,0.00,LWC V2.10 B1702,2013-02-15 10:10:00,
2013-02-15 05:15:00,32.8,30.5,30.02,SSW,205,0.0,0.0,91,0.00,,,0.00,LWC V2.10 B1702,2013-02-15 10:15:00,
2013-02-15 05:20:00,32.8,30.5,30.02,SSW,205,0.0,0.0,91,0.00,,,0.00,LWC V2.10 B1702,2013-02-15 10:20:00,
2013-02-15 05:25:00,32.8,30.5,30.02,SSE,163,0.0,2.0,91,0.00,,,0.00,LWC V2.10 B1702,2013-02-15 10:25:00,
2013-02-15 05:30:00,32.8,30.5,30.02,SSE,163,0.0,0.0,91,0.00,,,0.00,LWC V2.10 B1702,2013-02-15 10:30:00,
2013-02-15 05:35:00,32.7,30.4,30.02,SSE,163,0.0,0.0,91,0.00,,,0.00,LWC V2.10 B1702,2013-02-15 10:35:00,
2013-02-15 05:40:00,32.6,30.0,30.02,SSE,163,0.0,0.0,90,0.00,,,0.00,LWC V2.10 B1702,2013-02-15 10:40:00,
2013-02-15 05:45:00,32.6,30.3,30.02,SSE,163,0.0,0.0,91,0.00,,,0.00,LWC V2.10 B1702,2013-02-15 10:45:00,
2013-02-15 05:50:00,32.6,30.3,30.02,SSE,163,0.0,0.0,91,0.00,,,0.00,LWC V2.10 B1702,2013-02-15 10:50:00,
2013-02-15 05:55:00,32.6,30.3,30.02,SSE,163,0.0,0.0,91,0.00,,,0.00,LWC V2.10 B1702,2013-02-15 10:55:00,
2013-02-15 06:00:00,32.6,30.3,30.02,SSE,163,0.0,0.0,91,0.00,,,0.00,LWC V2.10 B1702,2013-02-15 11:00:00,
2013-02-15 06:05:00,32.6,30.3,30.02,SSE,163,0.0,0.0,91,0.00,,,0.00,LWC V2.10 B1702,2013-02-15 11:05:00,
2013-02-15 06:10:00,32.6,30.3,30.02,SSE,163,0.0,0.0,91,0.00,,,0.00,LWC V2.10 B1702,2013-02-15 11:10:00,
2013-02-15 06:15:00,32.8,30.5,30.02,SSE,164,0.0,0.0,91,0.00,,,0.00,LWC V2.10 B1702,2013-02-15 11:15:00,
2013-02-15 06:20:00,32.8,30.5,30.02,SSE,164,0.0,1.0,91,0.00,,,0.00,LWC V2.10 B1702,2013-02-15 11:20:00,
2013-02-15 06:25:00,32.9,30.6,30.02,SSW,195,1.0,2.0,91,0.00,,,0.00,LWC V2.10 B1702,2013-02-15 11:25:00,
2013-02-15 06:30:00,33.0,30.7,30.02,SSW,196,0.0,0.0,91,0.00,,,0.00,LWC V2.10 B1702,2013-02-15 11:30:00,
2013-02-15 06:35:00,33.2,31.1,30.02,SSW,195,0.0,1.0,92,0.00,,,0.00,LWC V2.10 B1702,2013-02-15 11:35:00,
2013-02-15 06:40:00,33.2,31.1,30.02,SSW,196,0.0,0.0,92,0.00,,,0.00,LWC V2.10 B1702,2013-02-15 11:40:00,
2013-02-15 06:45:00,33.2,30.9,30.02,SSE,155,0.0,0.0,91,0.00,,,0.00,LWC V2.10 B1702,2013-02-15 11:45:00,
2013-02-15 06:50:00,33.2,30.9,30.02,SW,219,0.0,2.0,91,0.00,,,0.00,LWC V2.10 B1702,2013-02-15 11:50:00,
2013-02-15 06:55:00,33.4,31.3,30.02,SSE,165,1.0,2.0,92,0.00,,,0.00,LWC V2.10 B1702,2013-02-15 11:55:00,
2013-02-15 07:00:00,33.5,31.4,30.02,South,171,0.0,0.0,92,0.00,,,0.00,LWC V2.10 B1702,2013-02-15 12:00:00,
2013-02-15 07:05:00,34.0,31.9,30.01,South,173,0.0,1.0,92,0.00,,,0.00,LWC V2.10 B1702,2013-02-15 12:05:00,
2013-02-15 07:10:00,35.1,33.3,30.01,SSE,164,0.0,1.0,93,0.00,,,0.00,LWC V2.10 B1702,2013-02-15 12:10:00,
2013-02-15 07:15:00,36.5,34.7,30.01,South,177,1.0,2.0,93,0.00,,,0.00,LWC V2.10 B1702,2013-02-15 12:15:00,
2013-02-15 07:20:00,37.2,35.6,30.01,South,177,0.0,0.0,94,0.00,,,0.00,LWC V2.10 B1702,2013-02-15 12:20:00,
2013-02-15 07:25:00,38.1,36.5,30.02,South,178,0.0,1.0,94,0.00,,,0.00,LWC V2.10 B1702,2013-02-15 12:25:00,
2013-02-15 07:30:00,38.3,36.7,30.01,South,182,0.0,0.0,94,0.00,,,0.00,LWC V2.10 B1702,2013-02-15 12:30:00,
2013-02-15 07:35:00,38.1,36.5,30.01,South,187,0.0,1.0,94,0.00,,,0.00,LWC V2.10 B1702,2013-02-15 12:35:00,
2013-02-15 07:40:00,38.5,36.9,30.01,South,185,0.0,3.0,94,0.00,,,0.00,LWC V2.10 B1702,2013-02-15 12:40:00,
2013-02-15 07:45:00,38.7,37.1,30.01,SE,142,0.0,0.0,94,0.00,,,0.00,LWC V2.10 B1702,2013-02-15 12:45:00,
2013-02-15 07:50:00,38.8,37.2,30.01,ESE,105,0.0,2.0,94,0.00,,,0.00,LWC V2.10 B1702,2013-02-15 12:50:00,
2013-02-15 07:55:00,38.7,37.1,30.01,SSW,196,0.0,1.0,94,0.00,,,0.00,LWC V2.10 B1702,2013-02-15 12:55:00,
2013-02-15 08:00:00,38.6,36.8,30.02,SSE,163,0.0,0.0,93,0.00,,,0.00,LWC V2.10 B1702,2013-02-15 13:00:00,
2013-02-15 08:05:00,39.3,37.4,30.02,South,173,0.0,1.0,93,0.00,,,0.00,LWC V2.10 B1702,2013-02-15 13:05:00,
2013-02-15 08:10:00,40.1,38.5,30.02,SW,219,2.0,2.0,94,0.00,,,0.00,LWC V2.10 B1702,2013-02-15 13:10:00,
2013-02-15 08:15:00,40.2,38.6,30.03,SW,220,0.0,2.0,94,0.00,,,0.00,LWC V2.10 B1702,2013-02-15 13:15:00,
2013-02-15 08:20:00,39.8,37.9,30.03,SW,234,2.0,2.0,93,0.00,,,0.00,LWC V2.10 B1702,2013-02-15 13:20:00,
2013-02-15 08:25:00,39.6,37.5,30.03,WSW,246,0.0,1.0,92,0.00,,,0.00,LWC V2.10 B1702,2013-02-15 13:25:00,
2013-02-15 08:30:00,39.5,37.4,30.03,SW,232,0.0,3.0,92,0.00,,,0.00,LWC V2.10 B1702,2013-02-15 13:30:00,
2013-02-15 08:35:00,39.6,37.5,30.03,SW,234,3.0,4.0,92,0.00,,,0.00,LWC V2.10 B1702,2013-02-15 13:35:00,
2013-02-15 08:40:00,39.8,37.4,30.03,WSW,238,2.0,7.0,91,0.00,,,0.00,LWC V2.10 B1702,2013-02-15 13:40:00,
2013-02-15 08:45:00,40.0,37.6,30.03,WSW,238,3.0,4.0,91,0.00,,,0.00,LWC V2.10 B1702,2013-02-15 13:45:00,
2013-02-15 08:50:00,40.4,37.7,30.04,WSW,241,2.0,6.0,90,0.00,,,0.00,LWC V2.10 B1702,2013-02-15 13:50:00,
2013-02-15 08:55:00,40.6,37.6,30.04,WSW,244,4.0,4.0,89,0.00,,,0.00,LWC V2.10 B1702,2013-02-15 13:55:00,
2013-02-15 09:00:00,40.6,37.6,30.04,SW,234,0.0,6.0,89,0.00,,,0.00,LWC V2.10 B1702,2013-02-15 14:00:00,
2013-02-15 09:05:00,40.7,37.4,30.04,WSW,238,2.0,4.0,88,0.00,,,0.00,LWC V2.10 B1702,2013-02-15 14:05:00,
2013-02-15 09:10:00,40.9,37.6,30.04,WSW,252,2.0,3.0,88,0.00,,,0.00,LWC V2.10 B1702,2013-02-15 14:10:00,
2013-02-15 09:15:00,41.3,38.0,30.04,WSW,239,3.0,5.0,88,0.00,,,0.00,LWC V2.10 B1702,2013-02-15 14:15:00,
2013-02-15 09:20:00,41.7,38.1,30.04,WSW,238,0.0,2.0,87,0.00,,,0.00,LWC V2.10 B1702,2013-02-15 14:20:00,
2013-02-15 09:25:00,42.2,38.3,30.04,West,261,4.0,4.0,86,0.00,,,0.00,LWC V2.10 B1702,2013-02-15 14:25:00,
2013-02-15 09:30:00,42.5,38.3,30.04,SW,222,1.0,5.0,85,0.00,,,0.00,LWC V2.10 B1702,2013-02-15 14:30:00,
2013-02-15 09:35:00,42.8,38.6,30.04,West,267,4.0,4.0,85,0.00,,,0.00,LWC V2.10 B1702,2013-02-15 14:35:00,
2013-02-15 09:40:00,43.0,38.5,30.04,West,281,4.0,4.0,84,0.00,,,0.00,LWC V2.10 B1702,2013-02-15 14:40:00,
2013-02-15 09:45:00,43.4,38.6,30.04,WSW,253,0.0,3.0,83,0.00,,,0.00,LWC V2.10 B1702,2013-02-15 14:45:00,
2013-02-15 09:50:00,44.0,39.2,30.04,West,270,4.0,6.0,83,0.00,,,0.00,LWC V2.10 B1702,2013-02-15 14:50:00,
2013-02-15 09:55:00,44.3,38.8,30.04,SW,229,2.0,8.0,81,0.00,,,0.00,LWC V2.10 B1702,2013-02-15 14:55:00,
2013-02-15 10:00:00,44.8,39.0,30.04,West,263,7.0,7.0,80,0.00,,,0.00,LWC V2.10 B1702,2013-02-15 15:00:00,
2013-02-15 10:05:00,44.8,39.0,30.04,WSW,244,5.0,7.0,80,0.00,,,0.00,LWC V2.10 B1702,2013-02-15 15:05:00,
2013-02-15 10:10:00,44.9,39.1,30.04,WSW,240,3.0,7.0,80,0.00,,,0.00,LWC V2.10 B1702,2013-02-15 15:10:00,
2013-02-15 10:15:00,45.0,38.9,30.04,West,266,1.0,3.0,79,0.00,,,0.00,LWC V2.10 B1702,2013-02-15 15:15:00,
2013-02-15 10:20:00,44.8,38.7,30.04,West,267,1.0,2.0,79,0.00,,,0.00,LWC V2.10 B1702,2013-02-15 15:20:00,
2013-02-15 10:25:00,44.8,38.7,30.04,SSW,194,0.0,3.0,79,0.00,,,0.00,LWC V2.10 B1702,2013-02-15 15:25:00,
2013-02-15 10:30:00,45.0,38.9,30.04,West,259,4.0,5.0,79,0.00,,,0.00,LWC V2.10 B1702,2013-02-15 15:30:00,
2013-02-15 10:35:00,45.3,39.2,30.04,WSW,244,4.0,8.0,79,0.00,,,0.00,LWC V2.10 B1702,2013-02-15 15:35:00,
2013-02-15 10:40:00,45.5,39.4,30.04,SW,229,2.0,6.0,79,0.00,,,0.00,LWC V2.10 B1702,2013-02-15 15:40:00,
2013-02-15 10:45:00,45.5,39.4,30.04,WSW,240,4.0,7.0,79,0.00,,,0.00,LWC V2.10 B1702,2013-02-15 15:45:00,
2013-02-15 10:50:00,45.5,39.4,30.04,West,261,3.0,7.0,79,0.00,,,0.00,LWC V2.10 B1702,2013-02-15 15:50:00,
2013-02-15 10:55:00,45.6,39.5,30.04,SSW,195,4.0,10.0,79,0.00,,,0.00,LWC V2.10 B1702,2013-02-15 15:55:00,
2013-02-15 11:00:00,45.7,39.2,30.03,SW,235,6.0,7.0,78,0.00,,,0.00,LWC V2.10 B1702,2013-02-15 16:00:00,
2013-02-15 11:05:00,45.9,39.4,30.03,West,268,2.0,6.0,78,0.00,,,0.00,LWC V2.10 B1702,2013-02-15 16:05:00,
2013-02-15 11:10:00,46.2,39.7,30.03,WNW,283,3.0,6.0,78,0.00,,,0.00,LWC V2.10 B1702,2013-02-15 16:10:00,
2013-02-15 11:15:00,46.6,39.8,30.03,West,268,4.0,7.0,77,0.00,,,0.00,LWC V2.10 B1702,2013-02-15 16:15:00,
2013-02-15 11:20:00,46.7,39.9,30.03,West,259,5.0,7.0,77,0.00,,,0.00,LWC V2.10 B1702,2013-02-15 16:20:00,
2013-02-15 11:25:00,46.9,39.7,30.02,SW,220,8.0,8.0,76,0.00,,,0.00,LWC V2.10 B1702,2013-02-15 16:25:00,
2013-02-15 11:30:00,47.0,39.8,30.02,SSW,200,7.0,7.0,76,0.00,,,0.00,LWC V2.10 B1702,2013-02-15 16:30:00,
2013-02-15 11:35:00,47.1,39.6,30.02,SW,222,4.0,8.0,75,0.00,,,0.00,LWC V2.10 B1702,2013-02-15 16:35:00,
2013-02-15 11:40:00,47.2,39.7,30.02,SW,223,4.0,4.0,75,0.00,,,0.00,LWC V2.10 B1702,2013-02-15 16:40:00,
2013-02-15 11:45:00,47.6,40.1,30.01,WSW,255,2.0,3.0,75,0.00,,,0.00,LWC V2.10 B1702,2013-02-15 16:45:00,
2013-02-15 11:50:00,47.8,39.9,30.01,SW,223,3.0,8.0,74,0.00,,,0.00,LWC V2.10 B1702,2013-02-15 16:50:00,
2013-02-15 11:55:00,48.0,39.8,30.01,SW,219,4.0,8.0,73,0.00,,,0.00,LWC V2.10 B1702,2013-02-15 16:55:00,
2013-02-15 12:00:00,47.9,39.7,30.01,WSW,238,6.0,9.0,73,0.00,,,0.00,LWC V2.10 B1702,2013-02-15 17:00:00,
2013-02-15 12:05:00,47.9,39.7,30.01,WSW,255,5.0,6.0,73,0.00,,,0.00,LWC V2.10 B1702,2013-02-15 17:05:00,
2013-02-15 12:10:00,48.2,40.0,30.01,SW,232,5.0,5.0,73,0.00,,,0.00,LWC V2.10 B1702,2013-02-15 17:10:00,
2013-02-15 12:15:00,48.4,39.8,30.00,West,267,4.0,8.0,72,0.00,,,0.00,LWC V2.10 B1702,2013-02-15 17:15:00,
2013-02-15 12:20:00,48.7,40.1,30.00,West,266,3.0,3.0,72,0.00,,,0.00,LWC V2.10 B1702,2013-02-15 17:20:00,
2013-02-15 12:25:00,48.8,40.2,30.00,South,186,4.0,10.0,72,0.00,,,0.00,LWC V2.10 B1702,2013-02-15 17:25:00,
2013-02-15 12:30:00,49.0,40.0,30.00,SSW,213,2.0,4.0,71,0.00,,,0.00,LWC V2.10 B1702,2013-02-15 17:30:00,
2013-02-15 12:35:00,49.0,40.0,30.00,SW,231,4.0,11.0,71,0.00,,,0.00,LWC V2.10 B1702,2013-02-15 17:35:00,
2013-02-15 12:40:00,49.2,39.8,29.99,SSW,211,5.0,7.0,70,0.00,,,0.00,LWC V2.10 B1702,2013-02-15 17:40:00,
2013-02-15 12:45:00,49.2,39.8,29.99,WSW,240,6.0,8.0,70,0.00,,,0.00,LWC V2.10 B1702,2013-02-15 17:45:00,
2013-02-15 12:50:00,48.9,39.6,29.99,WSW,237,9.0,9.0,70,0.00,,,0.00,LWC V2.10 B1702,2013-02-15 17:50:00,
2013-02-15 12:55:00,48.6,39.6,29.99,South,180,8.0,12.0,71,0.00,,,0.00,LWC V2.10 B1702,2013-02-15 17:55:00,
2013-02-15 13:00:00,48.7,39.7,29.98,SW,233,7.0,7.0,71,0.00,,,0.00,LWC V2.10 B1702,2013-02-15 18:00:00,
2013-02-15 13:05:00,48.7,39.4,29.98,West,260,7.0,12.0,70,0.00,,,0.00,LWC V2.10 B1702,2013-02-15 18:05:00,
2013-02-15 13:10:00,48.5,39.5,29.98,WSW,242,2.0,9.0,71,0.00,,,0.00,LWC V2.10 B1702,2013-02-15 18:10:00,
2013-02-15 13:15:00,48.3,39.3,29.98,WSW,257,7.0,11.0,71,0.00,,,0.00,LWC V2.10 B1702,2013-02-15 18:15:00,
2013-02-15 13:20:00,48.0,39.4,29.98,West,263,0.0,5.0,72,0.00,,,0.00,LWC V2.10 B1702,2013-02-15 18:20:00,
2013-02-15 13:25:00,48.0,39.4,29.98,NW,309,6.0,6.0,72,0.00,,,0.00,LWC V2.10 B1702,2013-02-15 18:25:00,
2013-02-15 13:30:00,48.1,39.5,29.98,SSW,194,9.0,11.0,72,0.00,,,0.00,LWC V2.10 B1702,2013-02-15 18:30:00,
2013-02-15 13:35:00,48.4,39.4,29.98,SW,218,5.0,8.0,71,0.00,,,0.00,LWC V2.10 B1702,2013-02-15 18:35:00,
2013-02-15 13:40:00,48.5,39.5,29.98,SSW,208,7.0,11.0,71,0.00,,,0.00,LWC V2.10 B1702,2013-02-15 18:40:00,
2013-02-15 13:45:00,48.4,39.4,29.98,South,178,6.0,8.0,71,0.00,,,0.00,LWC V2.10 B1702,2013-02-15 18:45:00,
2013-02-15 13:50:00,48.4,39.4,29.97,WNW,282,6.0,9.0,71,0.00,,,0.00,LWC V2.10 B1702,2013-02-15 18:50:00,
2013-02-15 13:55:00,48.3,39.3,29.97,SSE,157,4.0,10.0,71,0.00,,,0.00,LWC V2.10 B1702,2013-02-15 18:55:00,
2013-02-15 14:00:00,48.3,39.3,29.97,WSW,248,5.0,10.0,71,0.00,,,0.00,LWC V2.10 B1702,2013-02-15 19:00:00,
2013-02-15 14:05:00,48.2,39.2,29.97,West,266,4.0,9.0,71,0.00,,,0.00,LWC V2.10 B1702,2013-02-15 19:05:00,
2013-02-15 14:10:00,48.2,38.9,29.97,SW,236,8.0,8.0,70,0.00,,,0.00,LWC V2.10 B1702,2013-02-15 19:10:00,
2013-02-15 14:15:00,48.1,38.8,29.97,WSW,248,4.0,8.0,70,0.00,,,0.00,LWC V2.10 B1702,2013-02-15 19:15:00,
2013-02-15 14:20:00,47.9,38.6,29.97,WNW,290,3.0,8.0,70,0.00,,,0.00,LWC V2.10 B1702,2013-02-15 19:20:00,
2013-02-15 14:25:00,47.8,38.5,29.97,WSW,238,6.0,7.0,70,0.00,,,0.00,LWC V2.10 B1702,2013-02-15 19:25:00,
2013-02-15 14:30:00,47.8,38.5,29.97,WSW,248,2.0,10.0,70,0.00,,,0.00,LWC V2.10 B1702,2013-02-15 19:30:00,
2013-02-15 14:35:00,48.0,38.3,29.97,WSW,258,2.0,9.0,69,0.00,,,0.00,LWC V2.10 B1702,2013-02-15 19:35:00,
2013-02-15 14:40:00,48.0,38.3,29.97,WSW,237,5.0,10.0,69,0.00,,,0.00,LWC V2.10 B1702,2013-02-15 19:40:00,
2013-02-15 14:45:00,48.1,38.8,29.97,WNW,283,6.0,8.0,70,0.00,,,0.00,LWC V2.10 B1702,2013-02-15 19:45:00,
2013-02-15 14:50:00,47.7,38.4,29.97,WSW,239,1.0,8.0,70,0.00,,,0.00,LWC V2.10 B1702,2013-02-15 19:50:00,
2013-02-15 14:55:00,47.3,38.4,29.97,SW,221,4.0,9.0,71,0.00,,,0.00,LWC V2.10 B1702,2013-02-15 19:55:00,
2013-02-15 15:00:00,47.1,38.2,29.97,SSW,207,3.0,5.0,71,0.00,,,0.00,LWC V2.10 B1702,2013-02-15 20:00:00,
2013-02-15 15:05:00,47.0,37.7,29.97,WSW,242,2.0,6.0,70,0.00,,,0.00,LWC V2.10 B1702,2013-02-15 20:05:00,
2013-02-15 15:10:00,46.8,37.5,29.97,WSW,258,3.0,11.0,70,0.00,,,0.00,LWC V2.10 B1702,2013-02-15 20:10:00,
2013-02-15 15:15:00,46.8,37.9,29.97,SW,225,2.0,7.0,71,0.00,,,0.00,LWC V2.10 B1702,2013-02-15 20:15:00,
2013-02-15 15:20:00,46.9,37.6,29.97,SSW,196,3.0,8.0,70,0.00,,,0.00,LWC V2.10 B1702,2013-02-15 20:20:00,
2013-02-15 15:25:00,46.9,37.6,29.96,SW,234,6.0,6.0,70,0.00,,,0.00,LWC V2.10 B1702,2013-02-15 20:25:00,
2013-02-15 15:30:00,46.9,37.6,29.96,West,260,3.0,8.0,70,0.00,,,0.00,LWC V2.10 B1702,2013-02-15 20:30:00,
2013-02-15 15:35:00,46.8,37.9,29.96,West,268,4.0,7.0,71,0.00,,,0.00,LWC V2.10 B1702,2013-02-15 20:35:00,
2013-02-15 15:41:00,46.5,37.6,29.96,WSW,244,5.0,8.0,71,0.00,,,0.00,LWC V2.10 B1702,2013-02-15 20:41:00,
2013-02-15 15:46:00,46.4,37.9,29.96,West,262,6.0,6.0,72,0.00,,,0.00,LWC V2.10 B1702,2013-02-15 20:46:00,
2013-02-15 15:51:00,46.4,38.2,29.96,WSW,246,3.0,7.0,73,0.00,,,0.00,LWC V2.10 B1702,2013-02-15 20:51:00,
2013-02-15 15:56:00,46.3,38.1,29.96,SW,235,1.0,8.0,73,0.00,,,0.00,LWC V2.10 B1702,2013-02-15 20:56:00,
2013-02-15 16:01:00,46.3,38.1,29.96,SW,217,3.0,6.0,73,0.00,,,0.00,LWC V2.10 B1702,2013-02-15 21:01:00,
2013-02-15 16:06:00,46.4,38.2,29.96,WSW,238,4.0,7.0,73,0.00,,,0.00,LWC V2.10 B1702,2013-02-15 21:06:00,
2013-02-15 16:11:00,46.5,38.3,29.96,West,272,4.0,5.0,73,0.00,,,0.00,LWC V2.10 B1702,2013-02-15 21:11:00,
2013-02-15 16:16:00,46.3,38.1,29.95,WSW,238,4.0,7.0,73,0.00,,,0.00,LWC V2.10 B1702,2013-02-15 21:16:00,
2013-02-15 16:21:00,46.2,38.4,29.95,WSW,238,2.0,5.0,74,0.00,,,0.00,LWC V2.10 B1702,2013-02-15 21:21:00,
2013-02-15 16:26:00,45.9,38.1,29.95,WSW,253,5.0,5.0,74,0.00,,,0.00,LWC V2.10 B1702,2013-02-15 21:26:00,
2013-02-15 16:31:00,45.5,38.0,29.95,SSW,207,4.0,8.0,75,0.00,,,0.00,LWC V2.10 B1702,2013-02-15 21:31:00,
2013-02-15 16:36:00,45.2,38.1,29.95,SW,229,1.0,4.0,76,0.00,,,0.00,LWC V2.10 B1702,2013-02-15 21:36:00,
2013-02-15 16:41:00,44.9,37.8,29.96,WSW,243,1.0,4.0,76,0.00,,,0.00,LWC V2.10 B1702,2013-02-15 21:41:00,
2013-02-15 16:46:00,44.6,37.8,29.95,WSW,238,2.0,5.0,77,0.00,,,0.00,LWC V2.10 B1702,2013-02-15 21:46:00,
2013-02-15 16:51:00,44.3,37.9,29.95,WSW,241,4.0,6.0,78,0.00,,,0.00,LWC V2.10 B1702,2013-02-15 21:51:00,
2013-02-15 16:56:00,44.2,38.1,29.95,WSW,251,2.0,6.0,79,0.00,,,0.00,LWC V2.10 B1702,2013-02-15 21:56:00,
2013-02-15 17:01:00,43.9,37.8,29.95,WSW,244,6.0,7.0,79,0.00,,,0.00,LWC V2.10 B1702,2013-02-15 22:01:00,
2013-02-15 17:06:00,43.7,37.6,29.95,SSW,205,2.0,6.0,79,0.00,,,0.00,LWC V2.10 B1702,2013-02-15 22:06:00,
2013-02-15 17:11:00,43.6,37.8,29.95,SW,227,4.0,6.0,80,0.00,,,0.00,LWC V2.10 B1702,2013-02-15 22:11:00,
2013-02-15 17:16:00,43.5,37.7,29.95,SW,235,1.0,5.0,80,0.00,,,0.00,LWC V2.10 B1702,2013-02-15 22:16:00,
2013-02-15 17:21:00,43.4,37.6,29.95,WSW,241,1.0,3.0,80,0.00,,,0.00,LWC V2.10 B1702,2013-02-15 22:21:00,
2013-02-15 17:26:00,43.1,37.4,29.95,SW,221,2.0,4.0,80,0.00,,,0.00,LWC V2.10 B1702,2013-02-15 22:26:00,
2013-02-15 17:31:00,42.8,37.4,29.95,SSW,213,2.0,4.0,81,0.00,,,0.00,LWC V2.10 B1702,2013-02-15 22:31:00,
2013-02-15 17:36:00,42.6,37.2,29.95,SW,228,2.0,4.0,81,0.00,,,0.00,LWC V2.10 B1702,2013-02-15 22:36:00,
2013-02-15 17:41:00,42.5,37.4,29.95,SW,234,3.0,4.0,82,0.00,,,0.00,LWC V2.10 B1702,2013-02-15 22:41:00,
2013-02-15 17:46:00,42.4,37.3,29.95,South,186,4.0,4.0,82,0.00,,,0.00,LWC V2.10 B1702,2013-02-15 22:46:00,
2013-02-15 17:51:00,42.4,37.3,29.95,South,173,1.0,6.0,82,0.00,,,0.00,LWC V2.10 B1702,2013-02-15 22:51:00,
2013-02-15 17:56:00,42.2,37.1,29.95,SSW,204,3.0,3.0,82,0.00,,,0.00,LWC V2.10 B1702,2013-02-15 22:56:00,
2013-02-15 18:01:00,42.0,36.6,29.95,SSW,204,0.0,3.0,81,0.00,,,0.00,LWC V2.10 B1702,2013-02-15 23:01:00,
2013-02-15 18:06:00,41.6,36.5,29.95,SSW,207,2.0,6.0,82,0.00,,,0.00,LWC V2.10 B1702,2013-02-15 23:06:00,
2013-02-15 18:11:00,41.3,36.5,29.96,South,184,3.0,5.0,83,0.00,,,0.00,LWC V2.10 B1702,2013-02-15 23:11:00,
2013-02-15 18:16:00,41.1,36.3,29.96,SW,225,1.0,1.0,83,0.00,,,0.00,LWC V2.10 B1702,2013-02-15 23:16:00,
2013-02-15 18:21:00,40.9,36.4,29.96,SW,224,2.0,6.0,84,0.00,,,0.00,LWC V2.10 B1702,2013-02-15 23:21:00,
2013-02-15 18:26:00,40.7,36.2,29.96,SW,215,1.0,2.0,84,0.00,,,0.00,LWC V2.10 B1702,2013-02-15 23:26:00,
2013-02-15 18:31:00,40.6,36.5,29.95,SW,225,2.0,7.0,85,0.00,,,0.00,LWC V2.10 B1702,2013-02-15 23:31:00,
2013-02-15 18:36:00,40.5,36.4,29.95,SSE,164,2.0,3.0,85,0.00,,,0.00,LWC V2.10 B1702,2013-02-15 23:36:00,
2013-02-15 18:41:00,40.4,36.3,29.96,WSW,240,2.0,2.0,85,0.00,,,0.00,LWC V2.10 B1702,2013-02-15 23:41:00,
2013-02-15 18:46:00,40.4,36.5,29.96,SW,215,2.0,2.0,86,0.00,,,0.00,LWC V2.10 B1702,2013-02-15 23:46:00,
2013-02-15 18:51:00,40.3,36.5,29.96,SW,219,0.0,2.0,86,0.00,,,0.00,LWC V2.10 B1702,2013-02-15 23:51:00,
2013-02-15 18:56:00,40.2,36.4,29.96,SW,216,1.0,3.0,86,0.00,,,0.00,LWC V2.10 B1702,2013-02-15 23:56:00,
2013-02-15 19:01:00,40.1,36.3,29.96,SSW,213,2.0,4.0,86,0.00,,,0.00,LWC V2.10 B1702,2013-02-16 00:01:00,
2013-02-15 19:06:00,40.0,36.2,29.96,SW,222,0.0,1.0,86,0.00,,,0.00,LWC V2.10 B1702,2013-02-16 00:06:00,
2013-02-15 19:11:00,40.0,36.2,29.96,South,178,2.0,3.0,86,0.00,,,0.00,LWC V2.10 B1702,2013-02-16 00:11:00,
2013-02-15 19:16:00,39.9,36.3,29.96,SW,221,2.0,2.0,87,0.00,,,0.00,LWC V2.10 B1702,2013-02-16 00:16:00,
2013-02-15 19:21:00,40.0,36.4,29.96,SW,227,0.0,2.0,87,0.00,,,0.00,LWC V2.10 B1702,2013-02-16 00:21:00,
2013-02-15 19:26:00,40.0,36.4,29.96,SSW,211,0.0,2.0,87,0.00,,,0.00,LWC V2.10 B1702,2013-02-16 00:26:00,
2013-02-15 19:31:00,39.9,36.3,29.95,South,186,1.0,4.0,87,0.00,,,0.00,LWC V2.10 B1702,2013-02-16 00:31:00,
2013-02-15 19:36:00,39.9,36.3,29.96,SW,229,2.0,2.0,87,0.00,,,0.00,LWC V2.10 B1702,2013-02-16 00:36:00,
2013-02-15 19:41:00,40.0,36.4,29.95,SSW,212,2.0,3.0,87,0.00,,,0.00,LWC V2.10 B1702,2013-02-16 00:41:00,
2013-02-15 19:46:00,40.1,36.5,29.96,WSW,244,1.0,5.0,87,0.00,,,0.00,LWC V2.10 B1702,2013-02-16 00:46:00,
2013-02-15 19:51:00,40.1,36.5,29.96,WSW,242,3.0,3.0,87,0.00,,,0.00,LWC V2.10 B1702,2013-02-16 00:51:00,
2013-02-15 19:56:00,40.2,36.6,29.96,SW,232,0.0,3.0,87,0.00,,,0.00,LWC V2.10 B1702,2013-02-16 00:56:00,
2013-02-15 20:01:00,40.3,36.7,29.96,SW,232,2.0,2.0,87,0.00,,,0.00,LWC V2.10 B1702,2013-02-16 01:01:00,
2013-02-15 20:06:00,40.3,36.7,29.96,SW,228,1.0,4.0,87,0.00,,,0.00,LWC V2.10 B1702,2013-02-16 01:06:00,
2013-02-15 20:11:00,40.4,36.8,29.96,SW,218,2.0,2.0,87,0.00,,,0.00,LWC V2.10 B1702,2013-02-16 01:11:00,
2013-02-15 20:16:00,40.4,36.8,29.96,SW,221,2.0,5.0,87,0.00,,,0.00,LWC V2.10 B1702,2013-02-16 01:16:00,
2013-02-15 20:21:00,40.5,36.9,29.96,SW,226,0.0,2.0,87,0.00,,,0.00,LWC V2.10 B1702,2013-02-16 01:21:00,
2013-02-15 20:26:00,40.6,37.0,29.96,WSW,248,2.0,3.0,87,0.00,,,0.00,LWC V2.10 B1702,2013-02-16 01:26:00,
2013-02-15 20:31:00,40.6,37.0,29.96,SW,234,3.0,4.0,87,0.00,,,0.00,LWC V2.10 B1702,2013-02-16 01:31:00,
2013-02-15 20:36:00,40.6,37.0,29.95,SW,232,3.0,3.0,87,0.00,,,0.00,LWC V2.10 B1702,2013-02-16 01:36:00,
2013-02-15 20:41:00,40.7,37.1,29.95,SW,227,0.0,1.0,87,0.00,,,0.00,LWC V2.10 B1702,2013-02-16 01:41:00,
2013-02-15 20:46:00,40.6,36.7,29.95,South,179,0.0,4.0,86,0.00,,,0.00,LWC V2.10 B1702,2013-02-16 01:46:00,
2013-02-15 20:51:00,40.6,37.0,29.95,SW,223,2.0,6.0,87,0.00,,,0.00,LWC V2.10 B1702,2013-02-16 01:51:00,
2013-02-15 20:56:00,40.7,37.1,29.95,WSW,240,0.0,5.0,87,0.00,,,0.00,LWC V2.10 B1702,2013-02-16 01:56:00,
2013-02-15 21:01:00,40.9,37.3,29.95,WSW,239,1.0,7.0,87,0.00,,,0.00,LWC V2.10 B1702,2013-02-16 02:01:00,
2013-02-15 21:06:00,40.9,37.0,29.95,SW,225,0.0,2.0,86,0.00,,,0.00,LWC V2.10 B1702,2013-02-16 02:06:00,
2013-02-15 21:11:00,41.0,37.1,29.95,SW,231,1.0,5.0,86,0.00,,,0.00,LWC V2.10 B1702,2013-02-16 02:11:00,
2013-02-15 21:16:00,41.0,37.1,29.95,SW,225,0.0,3.0,86,0.00,,,0.00,LWC V2.10 B1702,2013-02-16 02:16:00,
2013-02-15 21:21:00,41.1,37.2,29.95,WSW,246,1.0,5.0,86,0.00,,,0.00,LWC V2.10 B1702,2013-02-16 02:21:00,
2013-02-15 21:26:00,41.1,37.2,29.95,WSW,240,2.0,4.0,86,0.00,,,0.00,LWC V2.10 B1702,2013-02-16 02:26:00,
2013-02-15 21:31:00,41.1,37.2,29.95,SW,223,0.0,2.0,86,0.00,,,0.00,LWC V2.10 B1702,2013-02-16 02:31:00,
2013-02-15 21:36:00,41.1,37.2,29.95,South,190,2.0,4.0,86,0.00,,,0.00,LWC V2.10 B1702,2013-02-16 02:36:00,
2013-02-15 21:41:00,41.1,36.9,29.95,WSW,238,0.0,2.0,85,0.00,,,0.00,LWC V2.10 B1702,2013-02-16 02:41:00,
2013-02-15 21:46:00,41.0,36.8,29.95,WSW,256,1.0,2.0,85,0.00,,,0.00,LWC V2.10 B1702,2013-02-16 02:46:00,
2013-02-15 21:51:00,40.8,36.6,29.95,SW,230,2.0,2.0,85,0.00,,,0.00,LWC V2.10 B1702,2013-02-16 02:51:00,
2013-02-15 21:56:00,40.7,36.5,29.95,SW,221,2.0,2.0,85,0.00,,,0.00,LWC V2.10 B1702,2013-02-16 02:56:00,
2013-02-15 22:01:00,40.6,36.5,29.95,SW,221,0.0,1.0,85,0.00,,,0.00,LWC V2.10 B1702,2013-02-16 03:01:00,
2013-02-15 22:06:00,40.6,36.7,29.95,SW,234,1.0,3.0,86,0.00,,,0.00,LWC V2.10 B1702,2013-02-16 03:06:00,
2013-02-15 22:11:00,40.5,36.6,29.95,SW,222,0.0,2.0,86,0.00,,,0.00,LWC V2.10 B1702,2013-02-16 03:11:00,
2013-02-15 22:16:00,40.4,36.5,29.95,SW,222,0.0,1.0,86,0.00,,,0.00,LWC V2.10 B1702,2013-02-16 03:16:00,
2013-02-15 22:21:00,40.4,36.5,29.95,SW,222,0.0,0.0,86,0.00,,,0.00,LWC V2.10 B1702,2013-02-16 03:21:00,
2013-02-15 22:26:00,40.3,36.7,29.95,SW,222,0.0,1.0,87,0.00,,,0.00,LWC V2.10 B1702,2013-02-16 03:26:00,
2013-02-15 22:31:00,40.2,36.6,29.95,SW,222,0.0,0.0,87,0.00,,,0.00,LWC V2.10 B1702,2013-02-16 03:31:00,
2013-02-15 22:36:00,40.2,36.6,29.95,SW,222,0.0,0.0,87,0.00,,,0.00,LWC V2.10 B1702,2013-02-16 03:36:00,
2013-02-15 22:41:00,40.1,36.5,29.95,SW,222,0.0,0.0,87,0.00,,,0.00,LWC V2.10 B1702,2013-02-16 03:41:00,
2013-02-15 22:46:00,40.0,36.4,29.94,SW,222,0.0,0.0,87,0.00,,,0.00,LWC V2.10 B1702,2013-02-16 03:46:00,
2013-02-15 22:51:00,39.9,36.3,29.94,SW,222,0.0,0.0,87,0.00,,,0.00,LWC V2.10 B1702,2013-02-16 03:51:00,
2013-02-15 22:56:00,39.8,36.3,29.94,SW,222,0.0,0.0,87,0.00,,,0.00,LWC V2.10 B1702,2013-02-16 03:56:00,
2013-02-15 23:01:00,39.7,36.2,29.94,SW,222,0.0,0.0,87,0.00,,,0.00,LWC V2.10 B1702,2013-02-16 04:01:00,
2013-02-15 23:06:00,39.6,36.1,29.94,SW,222,0.0,0.0,87,0.00,,,0.00,LWC V2.10 B1702,2013-02-16 04:06:00,
2013-02-15 23:11:00,39.5,36.2,29.94,SSE,164,0.0,0.0,88,0.00,,,0.00,LWC V2.10 B1702,2013-02-16 04:11:00,
2013-02-15 23:16:00,39.4,36.1,29.94,SSE,164,0.0,0.0,88,0.00,,,0.00,LWC V2.10 B1702,2013-02-16 04:16:00,
2013-02-15 23:21:00,39.2,36.0,29.94,SSE,164,0.0,0.0,88,0.00,,,0.00,LWC V2.10 B1702,2013-02-16 04:21:00,
2013-02-15 23:26:00,39.1,35.9,29.94,SSE,164,0.0,0.0,88,0.00,,,0.00,LWC V2.10 B1702,2013-02-16 04:26:00,
2013-02-15 23:31:00,38.9,35.7,29.94,SSE,164,0.0,0.0,88,0.00,,,0.00,LWC V2.10 B1702,2013-02-16 04:31:00,
2013-02-15 23:36:00,38.8,35.6,29.94,SSE,164,0.0,0.0,88,0.00,,,0.00,LWC V2.10 B1702,2013-02-16 04:36:00,
2013-02-15 23:41:00,38.7,35.5,29.94,SSE,164,0.0,0.0,88,0.00,,,0.00,LWC V2.10 B1702,2013-02-16 04:41:00,
2013-02-15 23:46:00,38.4,35.2,29.94,SSE,164,0.0,0.0,88,0.00,,,0.00,LWC V2.10 B1702,2013-02-16 04:46:00,
2013-02-15 23:51:00,38.1,34.9,29.94,SSE,164,0.0,0.0,88,0.00,,,0.00,LWC V2.10 B1702,2013-02-16 04:51:00,
2013-02-15 23:56:00,37.9,34.7,29.94,SSE,164,0.0,0.0,88,0.00,,,0.00,LWC V2.10 B1702,2013-02-16 04:56:00,